TimeIST,TemperatureF,Dew PointF,Humidity,Sea Level PressureIn,VisibilityMPH,Wind Direction,Wind SpeedMPH,Gust SpeedMPH,PrecipitationIn,Events,Conditions,WindDirDegrees,DateUTC
6:00 AM,46.4,46.4,100,30.27,6.2,NNE,5.8,-,N/A,,Overcast,20,2012-10-24 05:00:00
6:30 AM,48.2,46.4,93,30.27,6.2,NNE,6.9,-,N/A,,Overcast,20,2012-10-24 05:30:00
7:00 AM,48.2,46.4,93,30.27,6.2,NNE,6.9,-,N/A,,Overcast,20,2012-10-24 06:00:00
7:30 AM,48.2,46.4,93,30.27,6.2,NNE,6.9,-,N/A,,Overcast,20,2012-10-24 06:30:00
8:00 AM,48.2,46.4,93,30.27,6.2,North,6.9,-,N/A,,Overcast,10,2012-10-24 07:00:00
8:30 AM,48.2,48.2,100,30.27,6.2,North,5.8,-,N/A,,Overcast,10,2012-10-24 07:30:00
9:00 AM,48.2,46.4,93,30.27,6.2,North,6.9,-,N/A,,Overcast,10,2012-10-24 08:00:00
9:30 AM,48.2,46.4,93,30.27,6.2,NNE,6.9,-,N/A,,Overcast,30,2012-10-24 08:30:00
10:00 AM,48.2,46.4,93,30.27,6.2,NNE,8.1,-,N/A,,Overcast,20,2012-10-24 09:00:00
10:30 AM,48.2,48.2,100,30.24,6.2,NE,9.2,-,N/A,,Overcast,40,2012-10-24 09:30:00
11:00 AM,50.0,48.2,94,30.24,6.2,NNE,9.2,-,N/A,,Mostly Cloudy,20,2012-10-24 10:00:00
11:30 AM,50.0,48.2,94,30.24,6.2,NNE,11.5,-,N/A,,Mostly Cloudy,20,2012-10-24 10:30:00
12:00 PM,50.0,48.2,94,30.24,6.2,NNE,10.4,-,N/A,,Mostly Cloudy,30,2012-10-24 11:00:00
12:30 PM,51.8,48.2,88,30.24,6.2,NE,10.4,-,N/A,,Mostly Cloudy,40,2012-10-24 11:30:00
1:00 PM,53,49,80,30.25,22,NNE,11.2,,,,Partly Cloudy,20,2012-10-24 12:00:00
1:00 PM,53.6,48.2,82,30.21,6.2,NNE,11.5,-,N/A,,Mostly Cloudy,20,2012-10-24 12:00:00
1:30 PM,53.6,48.2,82,30.21,6.2,NNE,10.4,-,N/A,,Mostly Cloudy,30,2012-10-24 12:30:00
2:00 PM,53.6,50.0,88,30.21,6.2,NNE,10.4,-,N/A,,Overcast,30,2012-10-24 13:00:00
2:30 PM,51.8,48.2,88,30.21,6.2,NE,9.2,-,N/A,,Overcast,40,2012-10-24 13:30:00
3:00 PM,51.8,48.2,88,30.21,6.2,NNE,11.5,-,N/A,,Overcast,30,2012-10-24 14:00:00
3:30 PM,51.8,48.2,88,30.18,6.2,NNE,11.5,-,N/A,,Overcast,30,2012-10-24 14:30:00
4:00 PM,51.8,48.2,88,30.18,6.2,NE,11.5,-,N/A,,Overcast,40,2012-10-24 15:00:00
4:30 PM,51.8,48.2,88,30.18,6.2,NNE,10.4,-,N/A,,Overcast,30,2012-10-24 15:30:00
5:00 PM,51.8,48.2,88,30.18,6.2,NE,11.5,-,N/A,,Overcast,40,2012-10-24 16:00:00
5:30 PM,50.0,48.2,94,30.18,6.2,NE,11.5,-,N/A,,Overcast,40,2012-10-24 16:30:00
6:00 PM,50.0,48.2,94,30.18,6.2,NE,10.4,-,N/A,,Overcast,50,2012-10-24 17:00:00
7:00 PM,50,48,89,30.20,16,NE,11.2,,,,Mostly Cloudy,50,2012-10-24 18:00:00